CH1524 OTHH-OBBI

Flight info

Callsign CH1524
Flight time 0h 24m
Altitude 12000
Route TULUB M444 KINID DCT BHR
Aircraft A320/M-SDE3FGHIRWY/LB1

Departure

Time 2026-05-06 08:59
Airport Hamad International Airport (OTHH)

Arrival

Time 2026-05-06 09:23
Airport Bahrain International Airport (OBBI)
Time Latitude Longitude Altitude Speed Heading
2026-05-06 08:21 25.26306 51.61590 23 ft 0 kts 159°
2026-05-06 08:49 25.26308 51.61589 22 ft 2 kts 159°
2026-05-06 08:50 25.26333 51.61580 22 ft 4 kts 170°
2026-05-06 08:50 25.26358 51.61578 23 ft 2 kts 178°
2026-05-06 08:50 25.26380 51.61578 24 ft 4 kts 162°
2026-05-06 08:50 25.26399 51.61564 22 ft 4 kts 107°
2026-05-06 08:51 25.26397 51.61537 23 ft 4 kts 68°
2026-05-06 08:51 25.26392 51.61524 25 ft 1 kts 68°
2026-05-06 08:56 25.26395 51.61533 22 ft 5 kts 66°
2026-05-06 08:56 25.26427 51.61601 24 ft 14 kts 68°
2026-05-06 08:56 25.26464 51.61714 25 ft 17 kts 68°
2026-05-06 08:57 25.26510 51.61840 25 ft 19 kts 68°
2026-05-06 08:57 25.26557 51.61979 22 ft 19 kts 70°
2026-05-06 08:57 25.26635 51.62042 22 ft 15 kts 10°
2026-05-06 08:57 25.26744 51.62061 21 ft 17 kts
2026-05-06 08:58 25.26872 51.62081 20 ft 20 kts
2026-05-06 08:58 25.27009 51.62049 20 ft 21 kts 339°
2026-05-06 08:58 25.27246 51.61946 23 ft 68 kts 339°
2026-05-06 08:58 25.27902 51.61657 23 ft 132 kts 339°
2026-05-06 08:59 25.28890 51.61196 162 ft 166 kts 341°
2026-05-06 08:59 25.29883 51.60732 1077 ft 150 kts 340°
2026-05-06 08:59 25.30890 51.60256 1594 ft 160 kts 341°
2026-05-06 08:59 25.31986 51.59784 2001 ft 180 kts 341°
2026-05-06 09:00 25.33236 51.59267 2377 ft 203 kts 346°
2026-05-06 09:00 25.34698 51.59213 2635 ft 222 kts 10°
2026-05-06 09:00 25.36279 51.59643 2869 ft 246 kts 17°
2026-05-06 09:00 25.37975 51.60242 3332 ft 262 kts 18°
2026-05-06 09:01 25.39730 51.60875 3846 ft 268 kts 18°
2026-05-06 09:01 25.41512 51.61490 3972 ft 268 kts 17°
2026-05-06 09:01 25.43299 51.62072 3995 ft 267 kts 16°
2026-05-06 09:01 25.45088 51.62626 3999 ft 267 kts 15°
2026-05-06 09:02 25.46884 51.63166 4001 ft 267 kts 15°
2026-05-06 09:02 25.48690 51.63657 4000 ft 268 kts 13°
2026-05-06 09:02 25.50505 51.64101 4004 ft 268 kts 12°
2026-05-06 09:02 25.52330 51.64531 4000 ft 268 kts 12°
2026-05-06 09:03 25.54158 51.64959 3999 ft 269 kts 12°
2026-05-06 09:03 25.55982 51.65390 3993 ft 268 kts 12°
2026-05-06 09:03 25.57819 51.65734 3996 ft 268 kts
2026-05-06 09:03 25.59653 51.65538 4186 ft 274 kts 347°
2026-05-06 09:04 25.61507 51.65062 5051 ft 273 kts 348°
2026-05-06 09:04 25.63373 51.64611 5864 ft 276 kts 348°
2026-05-06 09:04 25.65261 51.64163 6599 ft 279 kts 348°
2026-05-06 09:04 25.67170 51.63713 7345 ft 282 kts 348°
2026-05-06 09:05 25.69103 51.63255 8093 ft 286 kts 348°
2026-05-06 09:05 25.71059 51.62788 8855 ft 289 kts 347°
2026-05-06 09:05 25.73018 51.62232 9609 ft 293 kts 339°
2026-05-06 09:05 25.74910 51.61357 10266 ft 300 kts 336°
2026-05-06 09:06 25.76901 51.60420 10479 ft 323 kts 336°
2026-05-06 09:06 25.79015 51.59425 10904 ft 335 kts 336°
2026-05-06 09:06 25.81189 51.58408 11570 ft 341 kts 336°
2026-05-06 09:06 25.83320 51.57230 11884 ft 343 kts 326°
2026-05-06 09:07 25.85122 51.55528 11977 ft 336 kts 311°
2026-05-06 09:07 25.86437 51.53437 11995 ft 329 kts 297°
2026-05-06 09:07 25.87508 51.51198 11996 ft 327 kts 297°
2026-05-06 09:07 25.88579 51.48971 11996 ft 327 kts 297°
2026-05-06 09:08 25.89653 51.46745 11996 ft 327 kts 297°
2026-05-06 09:08 25.90365 51.45275 12000 ft 327 kts 298°
2026-05-06 09:08 25.91442 51.43049 11999 ft 327 kts 297°
2026-05-06 09:08 25.92517 51.40826 11997 ft 327 kts 297°
2026-05-06 09:09 25.93593 51.38601 11998 ft 327 kts 297°
2026-05-06 09:09 25.94667 51.36376 11999 ft 327 kts 297°
2026-05-06 09:09 25.95744 51.34147 12000 ft 327 kts 297°
2026-05-06 09:09 25.96821 51.31921 11999 ft 327 kts 297°
2026-05-06 09:10 25.97886 51.29709 11745 ft 322 kts 297°
2026-05-06 09:10 25.98914 51.27537 11602 ft 311 kts 297°
2026-05-06 09:10 25.99897 51.25435 11307 ft 302 kts 297°
2026-05-06 09:10 26.00845 51.23399 10686 ft 299 kts 297°
2026-05-06 09:11 26.01795 51.21353 10156 ft 293 kts 296°
2026-05-06 09:11 26.02715 51.19374 9747 ft 283 kts 296°
2026-05-06 09:11 26.03603 51.17466 9350 ft 273 kts 296°
2026-05-06 09:11 26.04465 51.15626 9029 ft 265 kts 296°
2026-05-06 09:12 26.05349 51.13732 8988 ft 284 kts 296°
2026-05-06 09:12 26.06271 51.11761 8990 ft 289 kts 296°
2026-05-06 09:12 26.07200 51.09773 8990 ft 290 kts 296°
2026-05-06 09:12 26.08129 51.07785 8990 ft 290 kts 296°
2026-05-06 09:13 26.09058 51.05789 9000 ft 291 kts 296°
2026-05-06 09:13 26.09988 51.03789 8993 ft 290 kts 296°
2026-05-06 09:13 26.10915 51.01798 8993 ft 290 kts 296°
2026-05-06 09:13 26.11971 50.99888 8987 ft 291 kts 311°
2026-05-06 09:14 26.13595 50.98554 9004 ft 293 kts 330°
2026-05-06 09:14 26.15406 50.97532 8702 ft 291 kts 333°
2026-05-06 09:14 26.17227 50.96552 8298 ft 290 kts 333°
2026-05-06 09:14 26.19045 50.95581 7907 ft 289 kts 333°
2026-05-06 09:15 26.20855 50.94619 7531 ft 288 kts 333°
2026-05-06 09:15 26.22658 50.93664 7138 ft 286 kts 333°
2026-05-06 09:15 26.24442 50.92694 6751 ft 284 kts 327°
2026-05-06 09:15 26.25856 50.91213 6388 ft 277 kts 299°
2026-05-06 09:16 26.26436 50.89261 6260 ft 257 kts 270°
2026-05-06 09:16 26.26109 50.87420 6124 ft 235 kts 240°
2026-05-06 09:16 26.25068 50.86129 6018 ft 217 kts 217°
2026-05-06 09:16 26.23855 50.85197 5809 ft 209 kts 213°
2026-05-06 09:17 26.22623 50.84308 5342 ft 214 kts 213°
2026-05-06 09:17 26.21361 50.83396 4853 ft 219 kts 213°
2026-05-06 09:17 26.20073 50.82455 4382 ft 222 kts 213°
2026-05-06 09:17 26.18780 50.81503 3893 ft 225 kts 213°
2026-05-06 09:18 26.17468 50.80531 3391 ft 227 kts 213°
2026-05-06 09:18 26.16157 50.79558 2906 ft 227 kts 213°
2026-05-06 09:18 26.14836 50.78585 2397 ft 227 kts 214°
2026-05-06 09:18 26.13716 50.77377 1896 ft 225 kts 243°
2026-05-06 09:19 26.13386 50.75743 1539 ft 211 kts 281°
2026-05-06 09:19 26.13965 50.74348 1493 ft 197 kts 320°
2026-05-06 09:19 26.15132 50.73633 1515 ft 190 kts 336°
2026-05-06 09:19 26.16298 50.72986 1506 ft 185 kts 334°
2026-05-06 09:20 26.17432 50.72338 1411 ft 183 kts 334°
2026-05-06 09:20 26.18563 50.71693 1213 ft 184 kts 333°
2026-05-06 09:20 26.19775 50.71182 1110 ft 190 kts 348°
2026-05-06 09:20 26.21055 50.70950 1022 ft 184 kts 352°
2026-05-06 09:21 26.22286 50.70625 1006 ft 183 kts 336°
2026-05-06 09:21 26.23322 50.69796 967 ft 186 kts 313°
2026-05-06 09:21 26.24051 50.68623 844 ft 181 kts 305°
2026-05-06 09:21 26.24705 50.67484 637 ft 165 kts 306°
2026-05-06 09:22 26.25292 50.66464 409 ft 147 kts 307°
2026-05-06 09:22 26.25828 50.65535 219 ft 139 kts 308°
2026-05-06 09:22 26.26339 50.64646 42 ft 135 kts 306°
2026-05-06 09:22 26.26803 50.63855 16 ft 103 kts 302°
2026-05-06 09:23 26.27096 50.63342 15 ft 54 kts 303°
2026-05-06 09:23 26.27228 50.63113 16 ft 26 kts 296°
2026-05-06 09:23 26.27250 50.62947 17 ft 9 kts 272°
2026-05-06 09:23 26.27256 50.62877 18 ft 12 kts 275°
2026-05-06 09:24 26.27261 50.62747 18 ft 18 kts 273°
2026-05-06 09:24 26.27246 50.62658 19 ft 9 kts 224°
2026-05-06 09:24 26.27196 50.62633 21 ft 7 kts 182°
2026-05-06 09:24 26.27163 50.62661 19 ft 5 kts 126°
2026-05-06 09:25 26.27146 50.62690 20 ft 4 kts 122°
2026-05-06 09:25 26.27134 50.62714 21 ft 7 kts 120°
2026-05-06 09:25 26.27074 50.62821 21 ft 20 kts 120°
2026-05-06 09:25 26.27032 50.62892 22 ft 8 kts 126°
2026-05-06 09:26 26.27000 50.62943 22 ft 8 kts 122°
2026-05-06 09:26 26.26974 50.62991 22 ft 7 kts 120°
2026-05-06 09:26 26.26944 50.63043 21 ft 12 kts 124°
2026-05-06 09:26 26.26899 50.63122 21 ft 12 kts 122°
2026-05-06 09:27 26.26849 50.63209 22 ft 17 kts 123°
2026-05-06 09:27 26.26785 50.63318 21 ft 16 kts 123°
2026-05-06 09:27 26.26730 50.63413 21 ft 11 kts 123°
2026-05-06 09:27 26.26693 50.63478 23 ft 9 kts 122°
2026-05-06 09:28 26.26673 50.63496 23 ft 4 kts 169°
2026-05-06 09:28 26.26637 50.63477 24 ft 7 kts 215°
2026-05-06 09:28 26.26602 50.63451 21 ft 1 kts 211°
2026-05-06 09:28 26.26590 50.63442 21 ft 1 kts 212°
2026-05-06 09:29 26.26589 50.63441 21 ft 0 kts 212°